Home > Weather > Pensacola > Past weeks

Flag for U.S.A. Weather for the Past 2 Weeks in Pensacola, Florida, U.S.A.

Now
51 °F

Clear.


Feels Like: 47 °F
Forecast: 41 / 57 °F
Wind: 12 mph from West

Location: Pensacola Regional Airport

Current Time: Feb 7, 2016 at 8:33:19 PM

Latest Report: Feb 7, 2016 at 6:53 PM


Visibility: 10 mi

Pressure: 30.12 "Hg

Humidity: 41%

Dew point: 28 °F

Location of PensacolaLocation

Historic Weather in Pensacola — Graph

°F

Pensacola Temperature Yesterday

Maximum temperature yesterday: 59 °F (at 2:53 PM)
Minimum temperature yesterday: 36 °F (at 6:53 AM)
Average temperature yesterday: 47 °F

High & Low Weather Summary for the Past Weeks

 TemperatureHumidityPressure
High76 °F (Feb 1, 11:53 AM)100% (Feb 2, 12:53 AM)30.48 "Hg (Feb 2, 12:53 AM)
Low28 °F (Jan 24, 5:53 AM)21% (Feb 6, 2:53 PM)29.86 "Hg (Feb 3, 3:53 AM)
Average55 °F71%30.10 "Hg
* Reported Jan 23 6:53 PM — Feb 7 6:53 PM, Pensacola, Weather by CustomWeather, © 2016

Note: Actual official high and low records may vary slightly from our data, if they occured in-between our weather recording intervals... More about our weather records

Advertising

Pensacola Weather History for the Previous 24 Hours

 ConditionsComfort  
Time TempWeatherWind HumidityBarometerVisibility
6:53 PM
Sun, Feb 7
51 °FClear.12 mph41%30.12 "Hg10 mi
5:53 PM54 °FClear.6 mph34%30.10 "Hg10 mi
4:53 PM59 °FClear.6 mph23%30.09 "Hg10 mi
3:53 PM60 °FSunny.5 mph23%30.09 "Hg10 mi
2:53 PM61 °FSunny.3 mph23%30.09 "Hg10 mi
1:53 PM61 °FSunny.10 mph23%30.13 "Hg10 mi
12:53 PM59 °FSunny.12 mph26%30.17 "Hg10 mi
11:53 AM58 °FSunny.14 mph26%30.22 "Hg10 mi
10:53 AM55 °FSunny.10 mph29%30.26 "Hg10 mi
9:53 AM52 °FSunny.7 mph35%30.27 "Hg10 mi
8:53 AM49 °FSunny.10 mph38%30.27 "Hg10 mi
7:53 AM43 °FSunny.8 mph47%30.27 "Hg10 mi
6:53 AM36 °FSunny.7 mph64%30.25 "Hg10 mi
5:53 AM35 °FSunny.9 mph67%30.24 "Hg10 mi
4:53 AM38 °FClear.7 mph58%30.22 "Hg10 mi
3:53 AM37 °FClear.7 mph62%30.21 "Hg10 mi
2:53 AM38 °FClear.8 mph58%30.21 "Hg10 mi
1:53 AM40 °FClear.8 mph53%30.22 "Hg10 mi
12:53 AM39 °FClear.7 mph57%30.24 "Hg10 mi
11:53 PM
Sat, Feb 6
40 °FClear.7 mph55%30.23 "Hg10 mi
10:53 PM40 °FClear.7 mph58%30.24 "Hg10 mi
9:53 PM43 °FClear.8 mph49%30.24 "Hg10 mi
8:53 PM44 °FClear.3 mph45%30.25 "Hg10 mi
Weather by CustomWeather, © 2016

See weather overviewHow to use our weather pages